#timestamp,LO_Frequency,Hit,StdDev 
1614614415.8,286046999.9,N
1614614435.7,286047002.7,N
1614614455.5,286047002.5,N
1614614475.3,286047002.5,N
1614614495.2,286047003.0,N
1614614515.9,286047003.2,N
1614614535.7,286047000.2,N
1614614555.6,286047000.2,N
1614614575.4,286047002.3,N
1614614595.3,286047002.2,N
1614614615.1,286047002.4,N
1614614616.0,286047002.4,N
1614614635.8,286047001.5,N
1614614655.7,286047003.6,N
1614614675.5,286047001.8,N
1614614695.3,286047002.8,N
1614614715.2,286047002.2,N
1614614735.0,286047003.7,N
1614614735.9,286047003.7,N
1614614755.8,286047001.6,N
1614614775.6,286047002.5,N
1614614825.5,286047009.1,E
1614614835.4,286047005.0,N
1614614855.2,286046998.1,P
1614614875.1,286046998.4,N
1614614876.0,286046998.4,N
1614614895.8,286046998.4,N
1614614915.6,286046997.9,N
1614614935.5,286046998.6,N
1614614955.3,286047002.6,N
1614614975.1,286046999.3,N
1614614995.9,286046997.9,N
1614615015.7,286046996.5,N
1614615035.6,286046997.5,N
1614615055.4,286046997.5,N
1614615075.2,286046996.7,N
1614615095.1,286046995.5,N
1614615096.0,286046995.5,N
1614615115.8,286046994.0,N
1614615135.6,286046994.2,N
1614615155.5,286046995.0,N
1614615175.3,286046995.4,N
1614615195.2,286046999.5,N
1614615215.9,286047002.5,N
1614615235.7,286047000.2,N
1614615255.6,286046998.8,N
1614615275.4,286046999.6,N
1614615295.2,286046997.2,N
1614615315.1,286046997.3,N
1614615316.0,286046997.3,N
1614615335.8,286046998.9,N
1614615355.7,286046997.3,N
1614615375.5,286046995.8,N
1614615395.3,286046995.4,N
1614615415.2,286046998.7,N
1614615435.9,286046998.0,N
1614615455.7,286046997.5,N
1614615475.6,286046995.0,N
1614615495.4,286046996.2,N
1614615515.2,286046995.2,N
1614615535.1,286046998.0,N
1614615536.0,286046998.0,N
1614615555.8,286046999.1,N
1614615575.7,286046999.0,N
1614615595.5,286046999.1,N
1614615615.3,286046999.2,N
1614615635.2,286046997.6,N
1614615655.0,286046995.6,N
1614615655.9,286046995.6,N
1614615675.8,286046995.6,N
1614615695.6,286046995.0,N
1614615715.4,286046996.4,N
1614615735.3,286046996.5,N
1614615755.1,286046998.2,N
1614615775.8,286046996.8,N
1614615795.7,286046996.9,N
1614615815.5,286046998.0,N
1614615835.4,286046998.9,N
1614615855.2,286046999.3,N
1614615875.0,286047000.3,N
1614615875.9,286047000.3,N
1614615895.8,286046999.3,N
1614615915.6,286046996.9,N
1614615935.4,286046995.4,N
1614615955.3,286046995.9,N
1614615975.1,286046996.1,N
1614615995.9,286046996.6,N
1614616015.7,286047000.8,N
1614616035.5,286046999.6,N
1614616055.4,286046997.2,N
1614616075.2,286046995.6,N
1614616095.0,286046996.2,N
1614616096.0,286046996.2,N
1614616115.8,286046996.3,N
1614616135.6,286046994.9,Y
1614616155.5,286046998.8,P
1614616175.3,286046998.1,N
1614616195.1,286047001.5,N
1614616215.9,286047003.5,N
1614616235.7,286047004.4,N
1614616255.5,286047003.7,N
1614616275.4,286047007.4,N
1614616295.2,286047006.7,N
1614616315.1,286047009.1,N
1614616316.0,286047009.1,N
1614616335.8,286047008.3,N
1614616355.6,286047008.3,N
1614616375.5,286047005.1,N
1614616395.3,286047006.3,N
1614616415.1,286047007.4,N
1614616435.9,286047005.9,N
1614616455.7,286047005.1,N
1614616475.6,286047010.7,N
1614616495.4,286047013.2,Y
1614616515.2,286047008.0,P
1614616535.1,286047008.3,P
1614616536.0,286047008.3,P
1614616555.8,286047009.1,Y
1614616575.6,286046999.0,P
1614616595.5,286046998.6,N
1614616615.3,286047001.6,N
1614616635.2,286047002.3,N
1614616655.9,286047003.0,N
1614616675.7,286047002.3,N
1614616695.6,286046999.8,N
1614616715.4,286047002.2,N
1614616735.3,286047004.1,N
1614616755.1,286047005.1,N
1614616756.0,286047005.1,N
1614616775.8,286047003.4,N
1614616795.7,286047003.2,N
1614616815.5,286047001.9,N
1614616835.3,286047000.2,N
1614616855.2,286047001.2,N
1614616875.0,286047002.0,N
1614616875.9,286047002.0,N
1614616895.8,286047000.2,N
1614616915.6,286047002.2,N
1614616935.4,286047001.6,N
1614616955.3,286047004.0,N
1614616975.1,286047003.9,N
1614616976.0,286047003.9,N
1614616995.8,286047001.4,N
1614617015.7,286047000.5,N
1614617035.5,286047000.9,N
1614617055.3,286046998.7,N
1614617075.2,286046999.2,N
1614617095.0,286047000.0,N
1614617095.9,286047000.0,N
1614617115.8,286047000.4,N
1614617135.6,286047001.9,N
1614617155.4,286047000.9,N
1614617175.3,286046998.2,N
1614617195.1,286046996.5,N
1614617215.8,286047000.8,N
1614617235.7,286047002.2,N
1614617255.5,286047004.0,N
1614617275.4,286047003.0,N
1614617295.2,286047002.0,N
1614617315.0,286046999.8,N
1614617315.9,286046999.8,N
1614617335.8,286046996.9,N
1614617355.6,286046997.0,N
1614617375.4,286046996.7,N
1614617395.3,286047001.9,N
1614617415.1,286047002.9,N
1614617435.9,286047003.9,N
1614617455.7,286047001.7,N
1614617475.5,286047002.4,N
1614617495.4,286046998.5,N
1614617515.2,286046996.9,N
1614617535.0,286047000.7,N
1614617535.9,286047000.7,N
1614617555.8,286046999.3,N
1614617575.6,286046998.0,N
1614617595.5,286046995.4,N
1614617615.3,286046996.8,N
1614617635.1,286046998.7,N
1614617655.9,286047001.2,N
1614617675.7,286046995.1,N
1614617695.5,286046996.5,N
1614617715.4,286046996.7,N
1614617735.2,286046995.0,N
1614617755.1,286046996.9,N
1614617756.0,286046996.9,N
1614617775.8,286046997.7,N
1614617795.6,286046995.5,N
1614617815.5,286046996.0,N
1614617835.3,286046996.7,N
1614617855.1,286046995.6,N
1614617875.9,286046995.9,N
1614617895.7,286046996.3,N
1614617915.6,286046997.8,N
1614617935.4,286046995.9,N
1614617955.2,286046999.3,N
1614617975.1,286046997.6,N
1614617976.0,286046997.6,N
1614617995.8,286046993.3,Y
